Location: Atlantic Beach
(40.5890°N, 73.7290°W)
Time: 23:49:20
(UTC+00:00)

Envisat - Pass Details

Date: 29 January 2021
Orbit: 764 x 766 km, 98.1° (Epoch: 03 March)

Event Time Altitude Azimuth Distance (km) Brightness Sun altitude
Rises 23:22:13 0° 220° (SW) 3,221 7.1 -14.0°
Reaches altitude 10° 23:26:30 10° 255° (WSW) 2,302 6.9 -14.8°
Maximum altitude 23:27:53 11° 272° (W) 2,231 6.7 -15.0°
Drops below altitude 10° 23:29:17 10° 288° (WNW) 2,307 6.5 -15.3°
Sets 23:33:37 0° 323° (NW) 3,240 6.6 -16.1°
